Weather History for Shirley, NY

Change the Weather History Date:

Saturday, April 5, 2014

  Actual Average (KISP) Record (KISP)
Temperature  
Mean Temperature 46 °F 46 °F  
Max Temperature 55 °F 54 °F 68 °F (1988)
Min Temperature 37 °F 37 °F 24 °F (1995)
Degree Days  
Heating Degree Days 20 19  
Month to date heating degree days 100  
Since 1 July heating degree days 4792  
Cooling Degree Days 0 0  
Month to date cooling degree days 0  
Year to date cooling degree days 0  
Moisture  
Dew Point 35 °F    
Average Humidity 75    
Maximum Humidity 100    
Minimum Humidity 37    
Precipitation  
Precipitation 0.01 in 0.15 in 0.51 in (1984)
Month to date precipitation 0.75  
Year to date precipitation 12.09  
Snow  
Snow 0.00 in 0.00 in 0.10 in (2006)
Month to date snowfall 0.2  
Since 1 July snowfall 24.4  
Snow Depth -    
Sea Level Pressure  
Sea Level Pressure 29.81 in    
Wind  
Wind Speed 9 mph (NW)    
Max Wind Speed 24 mph    
Max Gust Speed 33 mph    
Visibility 6 miles    
Events Rain    
T = Trace of Precipitation, MM = Missing Value Source: NWS Daily Summary

Daily Weather History Graph

Daily Weather History Graph

Search for Another Location

Airport:

Trip Planner

Search our weather history database for the weather conditions in past years. The results will help you decide how hot, cold, wet, or windy it might be!

Date:

Astronomy

Apr. 05, 2014 Rise Set
Actual Time 6:28 AM EDT 7:20 PM EDT
Civil Twilight 6:00 AM EDT 7:48 PM EDT
Nautical Twilight 5:27 AM EDT 8:21 PM EDT
Astronomical Twilight 4:53 AM EDT 8:55 PM EDT
Moon 10:32 AM EDT (4/5) 12:29 AM EDT (4/5)
Length of Visible Light 13h 47m
Length of Day
12h 52m
Waxing Crescent, 34% of the Moon is Illuminated
Apr 5
Waxing Crescent
Apr 7
First Quarter
Apr 15
Full
Apr 22
Last Quarter
Apr 29
New

Hourly Weather History & Observations

Time (EDT) Temp. Windchill Dew Point Humidity Pressure Visibility Wind Dir Wind Speed Gust Speed Precip Events Conditions
12:27 AM 43.0 °F 40.3 °F 41.0 °F 93% 29.73 in 4.0 mi Variable 4.6 mph - N/A   Overcast
12:56 AM 43.0 °F 40.3 °F 42.1 °F 97% 29.73 in 4.0 mi Variable 4.6 mph - N/A   Overcast
1:23 AM 42.1 °F 39.2 °F 39.9 °F 92% 29.76 in 2.5 mi Variable 4.6 mph 21.9 mph 0.00 in Rain Light Rain
1:56 AM 42.1 °F - 41.0 °F 96% 29.72 in 1.8 mi Calm Calm - 0.00 in   Overcast
2:56 AM 39.9 °F 35.1 °F 39.0 °F 97% 29.70 in 1.8 mi North 6.9 mph - 0.00 in Rain Light Rain
3:10 AM 39.9 °F 35.1 °F 39.0 °F 97% 29.69 in 2.0 mi NNE 6.9 mph - 0.01 in   Overcast
3:56 AM 41.0 °F 34.7 °F 39.9 °F 96% 29.71 in 2.0 mi North 10.4 mph - 0.01 in   Overcast
4:56 AM 39.0 °F 32.3 °F 37.0 °F 93% 29.73 in 2.0 mi North 10.4 mph - N/A   Overcast
5:31 AM 39.0 °F 33.4 °F 37.0 °F 93% 29.73 in 1.8 mi North 8.1 mph - N/A   Overcast
5:40 AM 39.0 °F 34.0 °F 37.9 °F 96% 29.74 in 2.0 mi North 6.9 mph - N/A   Overcast
5:49 AM 37.9 °F 31.5 °F 37.9 °F 100% 29.74 in 1.8 mi NNW 9.2 mph - N/A   Overcast
5:56 AM 37.9 °F 30.9 °F 37.0 °F 97% 29.74 in 1.8 mi North 10.4 mph - N/A   Overcast
6:23 AM 39.0 °F 32.8 °F 37.9 °F 96% 29.77 in 2.0 mi NW 9.2 mph - N/A   Overcast
6:51 AM 39.2 °F 35.0 °F 37.4 °F 93% 29.77 in 1.8 mi NNW 5.8 mph - N/A   Overcast
6:56 AM 39.0 °F 34.0 °F 37.9 °F 96% 29.78 in 2.0 mi NNW 6.9 mph - N/A   Overcast
7:15 AM 39.0 °F 34.0 °F 37.9 °F 96% 29.78 in 2.5 mi NNW 6.9 mph - N/A   Overcast
7:24 AM 39.0 °F 34.0 °F 39.0 °F 100% 29.79 in 3.0 mi WNW 6.9 mph - N/A   Overcast
7:56 AM 39.9 °F 35.1 °F 39.0 °F 97% 29.80 in 7.0 mi WNW 6.9 mph - N/A   Overcast
8:56 AM 43.0 °F 38.8 °F 42.1 °F 97% 29.81 in 8.0 mi WNW 6.9 mph - N/A   Overcast
9:18 AM 44.1 °F 40.8 °F 43.0 °F 96% 29.80 in 10.0 mi WSW 5.8 mph - N/A   Mostly Cloudy
9:29 AM 46.0 °F 41.9 °F 44.1 °F 93% 29.80 in 10.0 mi West 8.1 mph - N/A   Scattered Clouds
9:56 AM 48.9 °F - 41.0 °F 74% 29.81 in 10.0 mi West 12.7 mph 20.7 mph N/A   Clear
10:56 AM 53.1 °F - 37.0 °F 55% 29.81 in 10.0 mi WNW 18.4 mph 27.6 mph N/A   Partly Cloudy
11:56 AM 54.0 °F - 36.0 °F 51% 29.80 in 10.0 mi WNW 17.3 mph - N/A   Partly Cloudy
12:56 PM 54.0 °F - 32.0 °F 43% 29.81 in 10.0 mi NW 24.2 mph 33.4 mph N/A   Clear
1:56 PM 54.0 °F - 30.0 °F 40% 29.82 in 10.0 mi NW 21.9 mph 29.9 mph N/A   Clear
2:56 PM 54.0 °F - 28.9 °F 38% 29.83 in 10.0 mi WNW 20.7 mph 28.8 mph N/A   Clear
3:56 PM 54.0 °F - 28.0 °F 37% 29.84 in 10.0 mi WNW 24.2 mph 33.4 mph N/A   Clear
4:56 PM 53.1 °F - 28.0 °F 38% 29.86 in 10.0 mi WNW 16.1 mph 29.9 mph N/A   Clear
5:56 PM 52.0 °F - 28.0 °F 40% 29.88 in 10.0 mi WNW 18.4 mph 29.9 mph N/A   Clear
6:56 PM 50.0 °F - 27.0 °F 41% 29.90 in 10.0 mi WNW 19.6 mph 27.6 mph N/A   Clear
7:56 PM 46.9 °F - 26.1 °F 44% 29.95 in 10.0 mi NW 13.8 mph 25.3 mph N/A   Clear
8:56 PM 44.1 °F 37.1 °F 25.0 °F 47% 29.99 in 10.0 mi NW 15.0 mph 23.0 mph N/A   Clear
9:56 PM 42.1 °F 34.5 °F 23.0 °F 47% 30.01 in 10.0 mi WNW 15.0 mph - N/A   Clear
10:56 PM 41.0 °F 33.9 °F 24.1 °F 51% 30.04 in 10.0 mi WNW 12.7 mph - N/A   Clear
11:56 PM 39.9 °F 34.5 °F 21.9 °F 49% 30.05 in 10.0 mi WNW 8.1 mph - N/A   Clear